Location: Wapato
(46.4478°N, 120.4212°W)
Time: 23:49:55
(UTC+00:00)

S-56A Canister/Altair - Pass Details

Date: 17 May 2026
Orbit: 633 x 2484 km, 38.9° (Epoch: 7 June)

Event Time Altitude Azimuth Distance (km) Brightness Sun altitude
Rises 05:11:35 0° 245° (WSW) 3,005 10.8 -14.2°
Reaches altitude 10° 05:14:09 10° 234° (SW) 2,024 9.7 -14.5°
Maximum altitude 05:18:05 31° 172° (S) 1,118 7.9 -15.0°
Enters shadow 05:19:27 26° 139° (SE) 1,280 8.1 -15.1°
